Location: Burjasot
(39.5167°N, 0.4167°W)
Time: 13:50:14
(UTC+02:00)

ISS - Pass Details

Date: 24 May 2019
Orbit: 408 x 418 km, 51.6° (Epoch: 18 June)

Event Time Altitude Azimuth Distance (km) Brightness Sun altitude
Rises 01:00:06 0° 314° (NW) 2,362 0.9 -28.3°
Reaches altitude 10° 01:03:07 10° 343° (NNW) 1,499 0.0 -28.4°
Maximum altitude 01:04:47 13° 13° (NNE) 1,329 -0.5 -28.5°
Enters shadow 01:05:34 12° 28° (NNE) 1,370 -0.6 -28.6°
